Location: Hopewell Observatory
(38.8698°N, 77.6988°W)
Time: 08:54:39
(UTC-05:00)

Amateur Radio Satellites - All Passes

Search period start: 15 December 2017 08:24
Search period end: 16 December 2017 08:24
Location: Hopewell Observatory, 38.8698°N, 77.6988°W

Satellite Date Start Highest point End Downlink Frequencies (MHz)
Time Altitude Azimuth
CUTE-I 15 Dec 08:25:25 08:26:45 11° 301° (WNW) 08:28:05 437.470
HO-68 15 Dec 08:27:25 08:33:51 38° 296° (WNW) 08:40:16 435.675
AAUSAT CUBESAT 2 15 Dec 08:28:12 08:32:15 50° 286° (WNW) 08:36:15 437.432
TIGRISAT 15 Dec 08:32:10 08:35:48 27° 70° (ENE) 08:39:25 435.000
Oscar 11 15 Dec 08:33:40 08:38:00 63° 100° (E) 08:42:18 .
UNISAT 6 15 Dec 08:35:23 08:39:13 33° 71° (ENE) 08:43:02 437.425
CUTE 1.7 + AOD 2 15 Dec 08:37:17 08:38:57 12° 296° (WNW) 08:40:36 437.475
AO-85 15 Dec 08:38:29 08:39:26 10° 253° (WSW) 08:40:22 145.980
AO-73 15 Dec 08:48:35 08:52:52 55° 286° (WNW) 08:57:13 145.935
PRISM 15 Dec 09:03:54 09:06:55 20° 67° (ENE) 09:09:57 437.425
SRMSAT 15 Dec 09:09:04 09:10:36 11° 185° (S) 09:12:08 437.500
XW-2A 15 Dec 09:10:04 09:11:28 12° 293° (WNW) 09:12:52 145.665 - 145.685
DELFI C3 15 Dec 09:24:11 09:27:57 42° 98° (E) 09:31:40 145.870
Max Valier Satellite 15 Dec 09:26:35 09:29:54 29° 97° (E) 09:33:11 145.860
EO-88 15 Dec 09:52:55 09:56:26 42° 99° (E) 09:59:55 145.990 - 145.960
ZACube-1 15 Dec 09:53:56 09:54:58 11° 296° (WNW) 09:56:01 437.345
O/OREOS (USA 219) 15 Dec 09:57:02 09:58:48 12° 307° (NW) 10:00:35 437.305
AIST 2D 15 Dec 09:59:04 10:01:55 24° 71° (ENE) 10:04:47 435.315
ISS 15 Dec 10:04:59 10:06:39 13° 129° (SE) 10:08:19 437.550
TIGRISAT 15 Dec 10:09:02 10:12:27 23° 265° (W) 10:15:51 435.000
Oscar 11 15 Dec 10:12:02 10:13:33 12° 296° (WNW) 10:15:05 .
UNISAT 6 15 Dec 10:12:53 10:15:59 19° 266° (W) 10:19:04 437.425
LO-87 15 Dec 10:23:38 10:24:22 10° 92° (E) 10:25:06 145.935 - 145.965
NANOSAT C BR1 15 Dec 10:26:14 10:28:52 17° 66° (ENE) 10:31:31 145.865
PRISM 15 Dec 10:38:14 10:41:57 32° 263° (W) 10:45:42 437.425
EO-79 15 Dec 10:40:59 10:44:31 27° 70° (ENE) 10:48:05 145.935-145.965
ESTCUBE 1 15 Dec 10:47:12 10:50:30 20° 94° (E) 10:53:46 437.505/2401.250
nSIGHT-1 15 Dec 10:55:01 10:58:12 64° 139° (SE) 11:01:23 .
DELFI C3 15 Dec 11:00:21 11:02:18 13° 294° (WNW) 11:04:13 145.870
Max Valier Satellite 15 Dec 11:01:02 11:03:27 17° 292° (WNW) 11:05:52 145.860
POLYITAN 1 15 Dec 11:03:36 11:07:38 49° 74° (ENE) 11:11:41 437.675
EO-88 15 Dec 11:28:19 11:29:38 12° 294° (WNW) 11:30:57 145.990 - 145.960
QB50P2 15 Dec 11:29:12 11:33:23 71° 258° (WSW) 11:37:35 145.880/145.840
AIST 2D 15 Dec 11:32:38 11:35:02 17° 266° (W) 11:37:27 435.315
DUCHIFAT 1 15 Dec 11:33:08 11:37:17 85° 76° (ENE) 11:41:28 145.980
ISS 15 Dec 11:39:31 11:42:46 58° 324° (NW) 11:46:02 437.550
LO-87 15 Dec 11:54:36 11:57:56 39° 286° (WNW) 12:01:16 145.935 - 145.965
Oscar 19 15 Dec 11:58:40 12:02:46 25° 66° (ENE) 12:06:54 437.125/150
NANOSAT C BR1 15 Dec 12:00:21 12:04:15 38° 262° (W) 12:08:10 145.865
BUGSAT 1 15 Dec 12:10:57 12:14:52 50° 74° (ENE) 12:18:46 437.445
NO-84 15 Dec 12:11:45 12:14:16 17° 30° (NNE) 12:16:54 435.350 FM
EO-79 15 Dec 12:16:56 12:20:14 22° 265° (W) 12:23:33 145.935-145.965
VELOX 1 15 Dec 12:17:10 12:20:49 25° 96° (E) 12:24:26 145.980
YUBILEINY 15 Dec 12:20:03 12:24:38 15° 61° (ENE) 12:29:11 435.215
ESTCUBE 1 15 Dec 12:23:12 12:27:23 37° 289° (WNW) 12:31:31 437.505/2401.250
RS-15 15 Dec 12:27:04 12:34:14 18° 97° (E) 12:41:22 29.354- 29.394
nSIGHT-1 15 Dec 12:32:18 12:34:40 19° 336° (NNW) 12:37:02 .
POLYITAN 1 15 Dec 12:41:58 12:43:39 12° 268° (W) 12:45:22 437.675
Gurwin Techsat 1B 15 Dec 12:45:29 12:50:35 50° 71° (ENE) 12:55:43 435.225
AO-91 15 Dec 12:48:51 12:53:47 74° 76° (ENE) 12:58:15 145.960
SPROUT 15 Dec 12:51:25 12:55:40 73° 284° (WNW) 12:59:52 437.525
DX 1 15 Dec 13:10:45 13:13:56 20° 95° (E) 13:17:05 434.975-435.025
ISS 15 Dec 13:18:02 13:19:48 14° 342° (NNW) 13:21:34 437.550
Oscar 19 15 Dec 13:37:07 13:41:51 38° 262° (W) 13:46:38 437.125/150
AO-7 15 Dec 13:42:15 13:49:41 39° 61° (ENE) 13:57:09 .
NO-84 15 Dec 13:48:04 13:51:55 81° 226° (SW) 13:56:00 435.350 FM
BUGSAT 1 15 Dec 13:49:12 13:50:28 11° 268° (W) 13:51:44 437.445
VELOX 1 15 Dec 13:53:28 13:57:10 27° 291° (WNW) 14:00:52 145.980
YUBILEINY 15 Dec 14:14:07 14:23:00 78° 82° (E) 14:31:45 435.215
SO-50 15 Dec 14:16:41 14:19:57 20° 111° (ESE) 14:23:15 436.795
MOZHAYETS 4 15 Dec 14:21:11 14:24:07 16° 93° (E) 14:27:01
50 SAT 15 Dec 14:22:07 14:25:04 38° 286° (WNW) 14:28:00 437.505
Gurwin Techsat 1B 15 Dec 14:27:05 14:30:47 19° 267° (W) 14:34:30 435.225
UKube-1 15 Dec 14:28:19 14:32:38 88° 291° (WNW) 14:36:56 .
AO-91 15 Dec 14:29:28 14:30:28 11° 268° (W) 14:31:26 145.960
RS-15 15 Dec 14:32:25 14:44:41 78° 117° (ESE) 14:56:56 29.354- 29.394
M-CUBED/EXP-1 PRIME 15 Dec 14:41:15 14:45:33 85° 75° (ENE) 14:50:08 437.505
DX 1 15 Dec 14:46:15 14:50:09 33° 290° (WNW) 14:54:02 434.975-435.025
BEESAT 15 Dec 14:49:10 14:52:48 21° 95° (E) 14:56:25 436.000
ITAMSAT 1 15 Dec 14:50:34 14:55:40 59° 73° (ENE) 15:00:48 435.822/435.867
ITUPSAT 1 15 Dec 15:17:25 15:21:57 41° 99° (E) 15:26:28 437.325
AO-7 15 Dec 15:34:20 15:42:14 47° 259° (W) 15:50:13 .
DOVE 4 15 Dec 15:36:02 15:40:39 32° 70° (ENE) 15:45:11 437.250
CUBESAT XI-V 15 Dec 15:45:54 15:50:05 31° 96° (E) 15:54:14 437.345
nSIGHT-1 15 Dec 15:47:48 15:49:18 13° 17° (NNE) 15:50:49 .
SO-50 15 Dec 15:55:55 16:00:07 40° 307° (NW) 16:04:22 436.795
MOZHAYETS 4 15 Dec 15:57:02 16:01:28 45° 287° (WNW) 16:05:52
YUBILEINY 15 Dec 16:12:48 16:18:42 20° 281° (W) 16:24:35 435.215
XW-2D 15 Dec 16:16:18 16:16:46 10° 65° (ENE) 16:17:13 145.860 - 145.880
CUTE-I 15 Dec 16:25:06 16:28:33 18° 63° (ENE) 16:32:00 437.470
BEESAT 15 Dec 16:26:17 16:30:38 37° 290° (WNW) 16:34:59 436.000
XW-2B 15 Dec 16:30:22 16:32:32 15° 67° (ENE) 16:34:44 145.730 - 145.750
ITAMSAT 1 15 Dec 16:32:27 16:35:29 16° 268° (W) 16:38:32 435.822/435.867
ISS 15 Dec 16:32:39 16:35:02 18° 23° (NNE) 16:37:24 437.550
XW-2F 15 Dec 16:40:59 16:43:39 19° 69° (ENE) 16:46:21 145.980 - 146.000
RS-15 15 Dec 16:47:25 16:58:27 36° 321° (NW) 17:09:23 29.354- 29.394
O/OREOS (USA 219) 15 Dec 16:48:32 16:50:13 12° 53° (NE) 16:51:52 437.305
ITUPSAT 1 15 Dec 16:56:00 16:59:27 20° 294° (WNW) 17:02:53 437.325
XW-2C 15 Dec 16:56:28 16:59:49 31° 72° (ENE) 17:03:12 145.795 - 145.815
HO-68 15 Dec 17:07:34 17:13:22 27° 61° (ENE) 17:19:10 435.675
DOVE 4 15 Dec 17:13:39 17:18:14 30° 264° (W) 17:22:44 437.250
nSIGHT-1 15 Dec 17:22:57 17:26:06 51° 35° (NE) 17:29:14 .
CUBESAT XI-V 15 Dec 17:23:26 17:27:18 25° 292° (WNW) 17:31:06 437.345
SEEDS 15 Dec 17:28:20 17:29:47 12° 64° (ENE) 17:31:14 437.485
LilacSat-2 15 Dec 17:33:40 17:37:28 77° 259° (W) 17:41:19 437.200
KKS-1 15 Dec 17:39:16 17:43:42 87° 288° (WNW) 17:48:07 437.445
NUDT-PHONESAT 15 Dec 17:46:32 17:50:13 88° 249° (WSW) 17:53:57 437.300
XW-2D 15 Dec 17:46:43 17:50:24 53° 260° (W) 17:54:08 145.860 - 145.880
CUTE 1.7 + AOD 2 15 Dec 17:50:37 17:54:27 34° 71° (ENE) 17:58:20 437.475
KAITUO 1B 15 Dec 17:52:08 17:55:51 69° 259° (W) 17:59:37 145.475/437.950
CUTE-I 15 Dec 18:02:46 18:08:04 60° 258° (WSW) 18:13:23 437.470
XW-2B 15 Dec 18:02:55 18:06:23 35° 262° (W) 18:09:54 145.730 - 145.750
ISS 15 Dec 18:08:32 18:11:49 72° 221° (SW) 18:15:04 437.550
PCSat 15 Dec 18:13:53 18:19:11 61° 114° (ESE) 18:24:32 145.827
XW-2F 15 Dec 18:14:20 18:17:33 27° 264° (W) 18:20:49 145.980 - 146.000
STARS 15 Dec 18:19:16 18:23:38 81° 286° (WNW) 18:27:59 437.465
O/OREOS (USA 219) 15 Dec 18:25:39 18:30:09 72° 251° (WSW) 18:34:35 437.305
XW-2C 15 Dec 18:31:40 18:34:02 16° 267° (W) 18:36:26 145.795 - 145.815
UWE-3 15 Dec 18:46:51 18:50:50 47° 74° (ENE) 18:54:49 435.000/436.395/437.385
CUBEBUG 2 15 Dec 18:49:17 18:53:31 84° 259° (W) 18:57:41 437.445
HO-68 15 Dec 18:53:35 19:00:37 57° 258° (WSW) 19:07:42 435.675
nSIGHT-1 15 Dec 19:00:08 19:01:59 15° 231° (SW) 19:03:51 .
SEEDS 15 Dec 19:00:44 19:04:54 60° 260° (W) 19:09:07 437.485
RS-15 15 Dec 19:08:13 19:16:08 19° 355° (N) 19:23:52 29.354- 29.394
ZACube-1 15 Dec 19:09:26 19:13:20 43° 73° (ENE) 19:17:16 437.345
AAUSAT CUBESAT 2 15 Dec 19:16:10 19:20:20 84° 74° (ENE) 19:24:32 437.432
Oscar 11 15 Dec 19:26:58 19:30:59 39° 72° (ENE) 19:35:02 .
CUTE 1.7 + AOD 2 15 Dec 19:27:23 19:30:21 18° 267° (W) 19:33:21 437.475
FO-29 15 Dec 19:30:27 19:35:22 21° 89° (E) 19:39:52 435.910
XW-2A 15 Dec 19:37:43 19:40:53 41° 261° (W) 19:44:05 145.665 - 145.685
AO-73 15 Dec 19:42:26 19:46:33 86° 261° (W) 19:50:43 145.935
STRAND 1 15 Dec 19:48:41 19:53:49 89° 276° (W) 19:58:55 437.568
BEESAT 3 15 Dec 19:49:17 19:53:16 84° 119° (ESE) 19:57:17 437.485
PCSat 15 Dec 19:58:59 20:02:59 21° 312° (NW) 20:07:01 145.827
Max Valier Satellite 15 Dec 20:05:54 20:07:10 11° 66° (ENE) 20:08:26 145.860
DELFI C3 15 Dec 20:08:24 20:11:25 21° 69° (ENE) 20:14:26 145.870
UWE-3 15 Dec 20:25:47 20:27:32 12° 269° (W) 20:29:17 435.000/436.395/437.385
EO-88 15 Dec 20:30:05 20:32:19 16° 68° (ENE) 20:34:33 145.990 - 145.960
BEESAT 2 15 Dec 20:32:03 20:36:00 64° 119° (ESE) 20:40:02 435.950
ZACube-1 15 Dec 20:47:45 20:49:49 14° 268° (W) 20:51:55 437.345
FALCONSAT 3 15 Dec 20:58:27 21:00:40 15° 154° (SSE) 21:02:54 435.103
Oscar 11 15 Dec 21:04:33 21:07:16 16° 268° (W) 21:10:00 .
AO-85 15 Dec 21:08:44 21:12:16 34° 114° (ESE) 21:15:56 145.980
FO-29 15 Dec 21:14:17 21:20:59 57° 289° (WNW) 21:26:50 435.910
RS-15 15 Dec 21:24:33 21:34:27 28° 31° (NNE) 21:43:54 29.354- 29.394
BEESAT 3 15 Dec 21:30:09 21:31:21 11° 318° (NW) 21:32:31 437.485
STRAND 1 15 Dec 21:31:05 21:32:11 11° 301° (WNW) 21:33:18 437.568
Max Valier Satellite 15 Dec 21:37:05 21:40:33 42° 261° (W) 21:44:04 145.860
DELFI C3 15 Dec 21:42:34 21:45:59 27° 264° (W) 21:49:24 145.870
ESTCUBE 1 15 Dec 21:46:02 21:48:49 16° 65° (ENE) 21:51:37 437.505/2401.250
TIGRISAT 15 Dec 22:00:08 22:04:29 75° 102° (ESE) 22:08:56 435.000
EO-88 15 Dec 22:02:27 22:05:40 30° 263° (W) 22:08:55 145.990 - 145.960
UNISAT 6 15 Dec 22:03:45 22:08:09 89° 267° (W) 22:12:36 437.425
BEESAT 2 15 Dec 22:12:02 22:14:08 14° 316° (NW) 22:16:15 435.950
PRISM 15 Dec 22:20:15 22:24:01 34° 98° (E) 22:27:44 437.425
LO-87 15 Dec 22:28:34 22:32:03 57° 75° (ENE) 22:35:31 145.935 - 145.965
FALCONSAT 3 15 Dec 22:35:48 22:39:14 38° 169° (SSE) 22:42:42 435.103
SO-50 15 Dec 22:48:25 22:51:30 17° 44° (NE) 22:54:35 436.795
AO-85 15 Dec 22:49:47 22:52:45 20° 313° (NW) 22:55:51 145.980
AIST 2D 15 Dec 22:57:20 23:00:36 33° 98° (E) 23:03:49 435.315
VELOX 1 15 Dec 23:13:23 23:16:38 20° 67° (ENE) 23:19:54 145.980
QB50P2 15 Dec 23:15:51 23:18:58 20° 94° (E) 23:22:04 145.880/145.840
DUCHIFAT 1 15 Dec 23:19:32 23:21:50 14° 93° (E) 23:24:07 145.980
ESTCUBE 1 15 Dec 23:20:52 23:25:13 47° 261° (W) 23:29:35 437.505/2401.250
RS-15 15 Dec 23:37:10 23:49:02 82° 58° (ENE) 00:00:13 29.354- 29.394
SPROUT 15 Dec 23:42:51 23:47:04 70° 76° (ENE) 23:51:18 437.525
NANOSAT C BR1 15 Dec 23:45:28 23:49:18 33° 98° (E) 23:53:07 145.865
PRISM 15 Dec 23:56:15 23:58:59 17° 294° (WNW) 00:01:42 437.425
EO-79 16 Dec 00:01:27 00:05:37 60° 101° (E) 00:09:47 145.935-145.965
DX 1 16 Dec 00:05:37 00:08:15 16° 65° (ENE) 00:10:54 434.975-435.025
FALCONSAT 3 16 Dec 00:14:31 00:18:05 48° 184° (S) 00:21:38 435.103
POLYITAN 1 16 Dec 00:24:48 00:29:01 71° 284° (WNW) 00:33:14 437.675
SO-50 16 Dec 00:27:43 00:32:22 66° 241° (WSW) 00:37:04 436.795
AIST 2D 16 Dec 00:31:41 00:33:25 13° 293° (WNW) 00:35:10 435.315
50 SAT 16 Dec 00:46:23 00:49:19 37° 74° (ENE) 00:52:17 437.505
VELOX 1 16 Dec 00:48:43 00:52:48 35° 262° (W) 00:56:55 145.980
QB50P2 16 Dec 00:51:01 00:54:46 31° 289° (WNW) 00:58:30 145.880/145.840
DUCHIFAT 1 16 Dec 00:53:41 00:57:39 42° 287° (WNW) 01:01:38 145.980
Gurwin Techsat 1B 16 Dec 01:03:38 01:07:40 22° 94° (E) 01:11:41 435.225
YUBILEINY 16 Dec 01:20:55 01:26:05 17° 78° (ENE) 01:31:14 435.215
UKube-1 16 Dec 01:20:59 01:25:16 65° 74° (ENE) 01:29:34 .
NANOSAT C BR1 16 Dec 01:21:46 01:24:44 19° 293° (WNW) 01:27:42 145.865
MOZHAYETS 4 16 Dec 01:22:36 01:25:00 14° 64° (ENE) 01:27:24
BUGSAT 1 16 Dec 01:28:35 01:32:37 77° 285° (WNW) 01:36:42 437.445
EO-79 16 Dec 01:39:28 01:40:50 11° 296° (WNW) 01:42:11 145.935-145.965
DX 1 16 Dec 01:39:50 01:44:02 45° 260° (W) 01:48:15 434.975-435.025
Oscar 19 16 Dec 01:49:17 01:54:32 83° 104° (ESE) 01:59:44 437.125/150
RS-15 16 Dec 01:51:25 01:59:56 25° 259° (W) 02:08:13 29.354- 29.394
FALCONSAT 3 16 Dec 01:53:42 01:56:49 26° 199° (SSW) 01:59:56 435.103
BEESAT 16 Dec 01:54:26 01:58:05 23° 67° (ENE) 02:01:45 436.000
AO-91 16 Dec 02:17:00 02:20:09 34° 287° (WNW) 02:23:14 145.960
ITUPSAT 1 16 Dec 02:22:46 02:27:15 42° 71° (ENE) 02:31:43 437.325
Gurwin Techsat 1B 16 Dec 02:42:44 02:47:47 44° 289° (WNW) 02:52:47 435.225
CUBESAT XI-V 16 Dec 02:47:58 02:51:51 27° 69° (ENE) 02:55:45 437.345
MOZHAYETS 4 16 Dec 02:57:12 03:01:39 55° 260° (W) 03:06:08
PCSat 16 Dec 03:03:04 03:08:07 37° 55° (NE) 03:13:06 145.827
ITAMSAT 1 16 Dec 03:05:23 03:09:24 22° 95° (E) 03:13:23 435.822/435.867
YUBILEINY 16 Dec 03:12:45 03:21:34 88° 277° (W) 03:30:29 435.215
Oscar 19 16 Dec 03:31:04 03:33:06 12° 300° (WNW) 03:35:08 437.125/150
BEESAT 16 Dec 03:31:16 03:35:37 36° 262° (W) 03:40:00 436.000
AO-7 16 Dec 03:36:41 03:45:02 65° 105° (ESE) 03:53:19 .
M-CUBED/EXP-1 PRIME 16 Dec 03:55:08 03:59:37 77° 106° (ESE) 04:03:47 437.505
ITUPSAT 1 16 Dec 04:01:56 04:05:13 19° 266° (W) 04:08:32 437.325
BEESAT 3 16 Dec 04:07:11 04:10:43 30° 52° (NE) 04:14:09 437.485
CUBESAT XI-V 16 Dec 04:25:04 04:29:05 29° 264° (W) 04:33:09 437.345
JUGNU 16 Dec 04:29:02 04:30:36 11° 178° (S) 04:32:09 437.505
KKS-1 16 Dec 04:35:34 04:40:01 74° 75° (ENE) 04:44:29 437.445
ITAMSAT 1 16 Dec 04:44:09 04:48:59 41° 290° (WNW) 04:53:47 435.822/435.867
PCSat 16 Dec 04:46:43 04:51:20 29° 252° (WSW) 04:55:55 145.827
BEESAT 2 16 Dec 04:50:58 04:54:23 26° 50° (NE) 04:57:45 435.950
NO-84 16 Dec 05:03:21 05:05:10 15° 125° (SE) 05:07:04 435.350 FM
LilacSat-2 16 Dec 05:09:43 05:11:24 12° 92° (E) 05:13:03 437.200
DOVE 4 16 Dec 05:13:29 05:17:57 89° 296° (WNW) 05:22:10 437.250
STARS 16 Dec 05:14:05 05:18:27 75° 76° (ENE) 05:22:50 437.465
YUBILEINY 16 Dec 05:14:10 05:19:40 18° 297° (WNW) 05:25:13 435.215
XW-2D 16 Dec 05:21:08 05:23:37 16° 93° (E) 05:26:06 145.860 - 145.880
KAITUO 1B 16 Dec 05:25:57 05:27:33 12° 92° (E) 05:29:09 145.475/437.950
STRAND 1 16 Dec 05:27:17 05:29:46 14° 61° (ENE) 05:32:14 437.568
AO-7 16 Dec 05:30:20 05:37:10 29° 303° (WNW) 05:43:59 .
M-CUBED/EXP-1 PRIME 16 Dec 05:31:54 05:33:14 11° 304° (NW) 05:34:33 437.505
XW-2B 16 Dec 05:36:30 05:39:40 24° 95° (E) 05:42:49 145.730 - 145.750
AO-85 16 Dec 05:39:55 05:44:04 28° 50° (NE) 05:48:26 145.980
FO-29 16 Dec 05:43:22 05:46:06 12° 53° (NE) 05:48:50 435.910
BEESAT 3 16 Dec 05:45:06 05:48:01 20° 249° (WSW) 05:50:55 437.485
XW-2F 16 Dec 05:46:56 05:50:21 30° 97° (E) 05:53:44 145.980 - 146.000
XW-2C 16 Dec 06:03:31 06:07:18 55° 100° (E) 06:11:05 145.795 - 145.815
CUTE-I 16 Dec 06:20:59 06:26:16 61° 102° (ESE) 06:31:30 437.470
HO-68 16 Dec 06:23:01 06:29:11 30° 96° (E) 06:35:18 435.675
BEESAT 2 16 Dec 06:28:39 06:32:01 26° 247° (WSW) 06:35:20 435.950
NO-84 16 Dec 06:39:21 06:42:06 33° 323° (NW) 06:45:03 435.350 FM
UWE-3 16 Dec 06:39:36 06:40:40 11° 91° (E) 06:41:45 435.000/436.395/437.385
CUBEBUG 2 16 Dec 06:41:25 06:44:43 21° 95° (E) 06:48:05 437.445
LilacSat-2 16 Dec 06:42:09 06:45:50 42° 287° (WNW) 06:49:29 437.200
SEEDS 16 Dec 06:46:05 06:49:32 24° 95° (E) 06:52:56 437.485
NUDT-PHONESAT 16 Dec 06:51:16 06:54:56 51° 285° (WNW) 06:58:34 437.300
XW-2D 16 Dec 06:54:25 06:57:49 31° 288° (WNW) 07:01:13 145.860 - 145.880
KAITUO 1B 16 Dec 06:58:07 07:01:42 40° 287° (WNW) 07:05:14 145.475/437.950
O/OREOS (USA 219) 16 Dec 06:59:20 07:01:59 15° 99° (E) 07:04:38 437.305
AAUSAT CUBESAT 2 16 Dec 07:00:49 07:03:03 14° 92° (E) 07:05:17 437.432
XW-2A 16 Dec 07:01:46 07:03:01 12° 92° (E) 07:04:16 145.665 - 145.685
STRAND 1 16 Dec 07:03:11 07:08:18 73° 258° (WSW) 07:13:25 437.568
SRMSAT 16 Dec 07:07:36 07:09:19 11° 176° (S) 07:11:02 437.500
XW-2B 16 Dec 07:10:44 07:13:42 21° 291° (WNW) 07:16:39 145.730 - 145.750
CUTE 1.7 + AOD 2 16 Dec 07:11:43 07:16:02 83° 102° (ESE) 07:20:18 437.475
AO-85 16 Dec 07:20:01 07:24:33 38° 245° (WSW) 07:29:20 145.980
XW-2F 16 Dec 07:21:39 07:24:12 17° 292° (WNW) 07:26:43 145.980 - 146.000
FO-29 16 Dec 07:21:59 07:29:34 60° 71° (ENE) 07:37:14 435.910
AO-73 16 Dec 07:31:51 07:35:06 20° 94° (E) 07:38:23 145.935
XW-2C 16 Dec 07:40:22 07:40:58 10° 295° (WNW) 07:41:34 145.795 - 145.815
CUTE-I 16 Dec 08:02:25 08:05:47 17° 298° (WNW) 08:09:07 437.470
HO-68 16 Dec 08:10:15 08:17:04 49° 293° (WNW) 08:23:51 435.675
UWE-3 16 Dec 08:13:08 08:17:26 62° 285° (WNW) 08:21:50 435.000/436.395/437.385
